Tracking 29892 objects as of 21-Nov-2024
HD Live streaming from Space Station
objects crossing your sky now

STARLINK-5647

Track STARLINK-5647 now!
10-day predictions
STARLINK-5647 is classified as:


NORAD ID: 55355
Int'l Code: 2023-013AA
Perigee: 565.9 km
Apogee: 566.7 km
Inclination: 43.0 °
Period: 95.8 minutes
Semi major axis: 6937 km
RCS: Unknown
Launch date: January 26, 2023
Source: United States (US)
Launch site: AIR FORCE EASTERN TEST RANGE (AFETR)
Your satellite tracking list
Your tracking list is empty




NASA's NSSDC Master Catalog

Two Line Element Set (TLE):
1 55355U 23013AA  24326.10549579 -.00001829  00000-0 -12042-3 0  9993
2 55355  43.0011 353.3351 0000590 291.1387  68.9392 15.02520250100901
Source of the keplerian elements: AFSPC